Miscellaneous Local Product
Issued by NWS Hastings, NE

Home | Current Version | Previous Version | Graphics & Text | Print | Product List | Glossary On
Versions: 1 2 3 4 5 6 7 8 9 10 11 12 13 14 15 16 17 18 19 20 21 22 23 24 25 26 27 28 29 30 31 32 33 34 35 36 37 38 39 40 41 42 43 44 45 46 47 48 49 50
431
AXUS43 KGID 240002
MISGRI

GID CWA HOURLY WEATHER ROUNDUP
NATIONAL WEATHER SERVICE HASTINGS NE
700 PM CDT WED AUG 23 2017

NOTE: "FAIR" INDICATES FEW OR NO CLOUDS BELOW 12,000 FEET WITH NO
SIGNIFICANT WEATHER AND/OR OBSTRUCTIONS TO VISIBILITY.

...SOUTH CENTRAL NEBRASKA...

CITY           SKY/WX    TMP DP  RH WIND       PRES   REMARKS
GRAND ISLAND   SUNNY     78  58  49 SE12      30.02F
HASTINGS       SUNNY     79  53  40 S8        30.04F
KEARNEY        SUNNY     78  57  48 S10       30.02F
ORD            SUNNY     78  54  43 S13       29.99F
YORK           SUNNY     75  61  60 S5        30.04F
AURORA         SUNNY     76  58  54 S10       30.03F
LEXINGTON      SUNNY     80  53  40 S10       30.01F
HOLDREGE       SUNNY     78  52  39 S7        30.02S
HEBRON         SUNNY     80  52  37 S7        30.03F

...NEBRASKA PANHANDLE...

CITY           SKY/WX    TMP DP  RH WIND       PRES   REMARKS
CHADRON        CLOUDY    88  53  30 S8        29.92F
ALLIANCE       SUNNY     84  58  40 SE7       29.99S
SCOTTSBLUFF    MOSUNNY   84  60  44 SE6       30.00R
SIDNEY         CLOUDY    85  58  39 SE13      30.03S

...WESTERN AND NORTH CENTRAL NEBRASKA...

CITY           SKY/WX    TMP DP  RH WIND       PRES   REMARKS
VALENTINE      SUNNY     89  58  34 S13       29.91F
AINSWORTH      SUNNY     82  62  50 S13       29.96F
ONEILL         SUNNY     78  58  50 S13G20    29.98S
BROKEN BOW     SUNNY     81  53  37 S13       30.00F
IMPERIAL       SUNNY     86  58  38 S14G21    29.99F
NORTH PLATTE   SUNNY     81  58  45 S15       29.99S
MCCOOK         SUNNY     83  53  35 S10       30.00F

...EASTERN NEBRASKA...

CITY           SKY/WX    TMP DP  RH WIND       PRES   REMARKS
NORFOLK        SUNNY     76  61  59 S12       29.99F
SO SIOUX CITY  MOSUNNY   76  59  55 S12       30.01F
TEKAMAH        SUNNY     76  60  57 S5        30.02F
COLUMBUS       SUNNY     76  61  59 S7        30.02F
ALBION         SUNNY     77  62  59 S9        30.01S
OMAHA EPPLEY   SUNNY     78  56  46 S10       30.03F
OFFUTT AFB     SUNNY     76  57  51 SE9       30.03F
MILLARD        SUNNY     78  59  51 S8        30.03F
LINCOLN        SUNNY     77  58  51 S8        30.04F
NEBRASKA CITY  SUNNY     75  60  60 SE5       30.05F
BEATRICE       SUNNY     80  57  45 E5        30.03F
FALLS CITY     SUNNY     74  59  59 SE5       30.05F

...NORTHERN KANSAS...

CITY           SKY/WX    TMP DP  RH WIND       PRES   REMARKS
GOODLAND       SUNNY     82  62  50 S16       30.03S
HILL CITY      SUNNY     85  45  24 SE14      30.01F
NORTON         CLEAR     82  37  20 SE12      30.00F
PHILLIPSBURG   SUNNY     82  45  26 SE8       30.01S
HAYS           SUNNY     83  49  30 SE14      30.02F
RUSSELL        SUNNY     83  45  26 S14       30.01F
CONCORDIA      SUNNY     77  56  48 E7        30.03F
SALINA         SUNNY     85  49  28 SE12      30.03S
TOPEKA         SUNNY     77  60  55 E5        30.05F



USA.gov is the U.S. government's official web portal to all federal, state and local government web resources and services.